Flag for U.S.A. Weather past 2 weeks in Vallejo, California, U.S.A.

Now
69 °F

Scattered clouds.


Feels Like: 69 °F
Forecast: 59 / 74 °F
Wind: 10 mph from West

Location: Napa County Airport

Current Time: Jul 22, 2014 at 12:53:20 PM

Latest Report: Jul 22, 2014 at 9:54 AM


Visibility: 10 mi

Pressure: 30.05 "Hg

Humidity: 63%

Dew point: 56 °F

Location of VallejoLocation

Historic Weather in Vallejo — Graph

°F

Vallejo temperature yesterday

Maximum temperature yesterday: 75 °F (at 2:54 PM)
Minimum temperature yesterday: 60 °F (at 5:54 AM)
Average temperature yesterday: 66 °F

Past Weeks' High & Low Weather Summary

 TemperatureHumidityPressure
High81 °F (Jul 15, 1:54 PM)100% (Jul 20, 3:54 AM)30.06 "Hg (Jul 20, 3:54 AM)
Low55 °F (Jul 9, 5:54 AM)45% (Jul 14, 1:54 PM)29.80 "Hg (Jul 7, 6:54 PM)
Average65 °F78%29.93 "Hg
* Reported Jul 7 9:54 AM — Jul 22 9:54 AM, Vallejo, Weather by CustomWeather, © 2014

Note: Actual official high and low records may vary slightly from our data, if they occured in-between our weather recording intervals... More about our weather records

Advertising

Vallejo weather history for previous 24 hours

 ConditionsComfort  
Time TempWeatherWind HumidityBarometerVisibility
9:54 AM
Jul 22
69 °FSunny.10 mph63%30.05 "Hg10 mi
8:54 AM66 °FScattered clouds.8 mph70%30.04 "Hg10 mi
7:54 AM62 °FSunny.3 mph86%30.04 "Hg10 mi
6:54 AM59 °FClear.5 mph90%30.02 "Hg10 mi
5:54 AM60 °FPassing clouds.8 mph90%30.01 "Hg10 mi
4:54 AM60 °FOvercast.10 mph90%30.00 "Hg10 mi
3:54 AM59 °FPassing clouds.10 mph93%30.00 "Hg10 mi
2:54 AM60 °FOvercast.10 mph93%30.01 "Hg10 mi
1:54 AM59 °FClear.7 mph93%30.01 "Hg10 mi
12:54 AM59 °FClear.6 mph93%30.00 "Hg10 mi
11:54 PM
Jul 21
60 °FClear.9 mph93%30.01 "Hg10 mi
10:54 PM61 °FClear.8 mph90%30.01 "Hg10 mi
9:54 PM62 °FClear.13 mph86%30.00 "Hg10 mi
8:54 PM64 °FSunny.14 mph81%29.99 "Hg10 mi
7:54 PM67 °FSunny.16 mph73%29.98 "Hg10 mi
6:54 PM71 °FSunny.18 mph66%29.98 "Hg10 mi
5:54 PM73 °FSunny.14 mph64%29.98 "Hg10 mi
4:54 PM74 °FSunny.18 mph62%29.98 "Hg10 mi
3:54 PM75 °FSunny.20 mph60%29.99 "Hg10 mi
2:54 PM75 °FSunny.18 mph60%30.00 "Hg10 mi
1:54 PM74 °FSunny.16 mph62%30.01 "Hg10 mi
12:54 PM72 °FOvercast.16 mph66%30.02 "Hg10 mi
Weather by CustomWeather, © 2014

See weather overviewHow to use our weather pages